sat.trackr.live / text

‹ back to catalog

2026-027E

NORAD 67750 · 2026-027E

PAYLOAD ACTIVE UNKNOWN

§ Identity

Operator
Country
PRC
Launch date
2026-02-12
Launch site
SCSLA
Launch vehicle
Mass (kg)
RCS (m²)

External: N2YO · Heavens-Above · Gunter

§ Orbital elements

Epoch: 2026-05-24T19:03:53.352000Z

Period
94.79 min
Inclination
97.5041°
Eccentricity
0.0008185
Mean motion
15.19227510 rev/d
Perigee alt
502.5 km
Apogee alt
513.8 km
Semi-major
6,886.3 km
B*
2.4877e-4
RAAN
273.2179°
Arg perigee
312.6413°
Mean anomaly
47.4131°
Rev number
1,541

§ Raw data

2026-027E1 67750U 26027E   26144.79436750  .00005175  00000+0  24877-3 0  99982 67750  97.5041 273.2179 0008185 312.6413  47.4131 15.19227510 15410

JSON: /api/v1/satellites/67750 · /tle

For live sub-satellite position, see the globe view (requires WebGL).

§ Visibility from observer

Set your observer location to see the next 7 days of passes ≥ 10°. The values pass through the URL so the page stays shareable.

No JS? Fill the form by hand. The geolocation button needs JavaScript.